Home > Weather > Ojinaga > Past weeks

Flag for Mexico Weather for the Past 2 Weeks in Ojinaga, Chihuahua, Mexico

Now
82 °F

Sunny.


Feels Like: 80 °F
Forecast: 53 / 85 °F
Wind: 16 mph from South

Location: Marfa Municipal Airport

Current Time: Apr 28, 2016 at 6:20:56 PM

Latest Report: Apr 28, 2016 at 4:56 PM


Visibility: 10 mi

Pressure: 29.64 "Hg (27.10 "Hg at 788m altitude)

Humidity: 7%

Dew Point: 13 °F

Location of OjinagaLocation

Historic Weather in Ojinaga — Graph

°F

Ojinaga Temperature Yesterday

Maximum temperature yesterday: 78 °F (at 4:56 PM)
Minimum temperature yesterday: 40 °F (at 5:56 AM)
Average temperature yesterday: 61 °F

High & Low Weather Summary for the Past Weeks

 TemperatureHumidityPressure
High83 °F (Apr 15, 2:56 PM)96% (Apr 16, 5:56 AM)30.14 "Hg (Apr 16, 5:56 AM)
Low36 °F (Apr 14, 3:56 AM)7% (Apr 26, 6:56 PM)29.56 "Hg (Apr 15, 7:56 PM)
Average62 °F42%29.88 "Hg
* Reported Apr 13 4:56 PM — Apr 28 4:56 PM, Ojinaga, Weather by CustomWeather, © 2016

Note: Actual official high and low records may vary slightly from our data, if they occured in-between our weather recording intervals... More about our weather records

Advertising

Ojinaga Weather History for the Previous 24 Hours

Scroll right to see more
 ConditionsComfort  
Time TempWeatherWind HumidityBarometerVisibility
4:56 PM
Thu, Apr 28
82 °FSunny.16 mph7%29.64 "Hg10 mi
3:56 PM82 °FSunny.17 mph8%29.65 "Hg10 mi
2:56 PM82 °FSunny.7 mph7%29.67 "Hg10 mi
1:56 PM83 °FSunny.13 mph8%29.68 "Hg10 mi
12:56 PM81 °FSunny.14 mph10%29.70 "Hg10 mi
11:56 AM78 °FSunny.No wind11%29.74 "Hg10 mi
10:56 AM77 °FSunny.12 mph12%29.76 "Hg10 mi
9:56 AM73 °FSunny.9 mph15%29.75 "Hg10 mi
8:56 AM67 °FSunny.6 mph19%29.76 "Hg10 mi
7:56 AM61 °FSunny.No wind24%29.74 "Hg10 mi
6:56 AM43 °FClear.3 mph40%29.75 "Hg10 mi
5:56 AM38 °FClear.5 mph45%29.75 "Hg10 mi
4:56 AM42 °FClear.6 mph39%29.72 "Hg10 mi
3:56 AM43 °FClear.10 mph37%29.70 "Hg10 mi
2:56 AM42 °FClear.6 mph39%29.71 "Hg10 mi
1:56 AM45 °FClear.8 mph35%29.72 "Hg10 mi
12:56 AM46 °FClear.10 mph34%29.73 "Hg10 mi
11:56 PM
Wed, Apr 27
46 °FClear.9 mph34%29.75 "Hg10 mi
10:56 PM49 °FClear.8 mph31%29.75 "Hg10 mi
9:56 PM50 °FClear.10 mph29%29.75 "Hg10 mi
8:56 PM59 °FClear.No wind20%29.74 "Hg10 mi
7:56 PM68 °FSunny.5 mph15%29.72 "Hg10 mi
6:56 PM73 °FSunny.8 mph13%29.73 "Hg10 mi
Weather by CustomWeather, © 2016

See weather overviewHow to use our weather pages